Regional Weather Roundup
Issued by NWS

Home | Current Version | Previous Version | Graphics & Text | Print | Product List | Glossary On
Versions: 1 2 3 4 5 6 7 8 9 10 11 12 13 14 15 16 17 18 19 20 21 22 23 24 25 26 27
000
ASUS45 KCYS 220010
RWRWY

WYOMING REGIONAL WEATHER ROUNDUP
NATIONAL WEATHER SERVICE CHEYENNE WY
600 PM MDT MON AUG 21 2017

NOTE:  "FAIR" INDICATES FEW OR NO CLOUDS BELOW 12,000 FEET
WITH NO SIGNIFICANT WEATHER AND/OR OBSTRUCTIONS TO VISIBILITY.

WYZ001-220100-
YELLOWSTONE NATIONAL PARK

CITY           SKY/WX    TMP DP  RH WIND       PRES   REMARKS
LK YELLOWSTONE   N/A     68  42  38 CALM      30.37S
6HR MIN TEMP:  52; 6HR MAX TEMP:  69;

W YELLOWSTONE  NOT AVBL

$$
WYZ002>013-054>058-071-098>099-220100-
NORTHERN WYOMING

CITY           SKY/WX    TMP DP  RH WIND       PRES   REMARKS
JACKSON        FAIR      79  26  14 VRB7      30.26S
CODY           FAIR      73  35  25 N12       30.22R
GREYBULL       FAIR      84  26  12 NW6       30.10F
6HR MIN TEMP:  71; 6HR MAX TEMP:  86;

WORLAND        FAIR      82  36  19 N5        30.12S
6HR MIN TEMP:  64; 6HR MAX TEMP:  83;

SHERIDAN       FAIR      81  32  17 VRB5      30.17S
6HR MIN TEMP:  67; 6HR MAX TEMP:  82;

BUFFALO        FAIR      78  30  17 NE7       30.23S
6HR MIN TEMP:  65; 6HR MAX TEMP:  79;

GILLETTE       FAIR      77  32  19 NE9G17    30.20R
6HR MIN TEMP:  65; 6HR MAX TEMP:  79;

HULETT         FAIR      73  34  23 NE8       30.21S
NEWCASTLE      FAIR      77  30  18 N13G20    30.17S

$$
WYZ014>020-022>026-101>103-220100-
CENTRAL WYOMING

CITY           SKY/WX    TMP DP  RH WIND       PRES   REMARKS
BIG PINEY      FAIR      80  29  15 NW14      30.29R
6HR MIN TEMP:  62; 6HR MAX TEMP:  82;

PINEDALE       FAIR      77  27  15 NW14G21   30.30R
DUBOIS         FAIR      77  12   8 NW3G18    30.28S
LANDER           N/A    N/A N/A N/A MISG      30.18S
RIVERTON       FAIR      83  33  16 E9        30.17S
6HR MIN TEMP:  67; 6HR MAX TEMP:  83;

CASPER         FAIR      81  35  19 E13       30.19S
6HR MIN TEMP:  66; 6HR MAX TEMP:  82;

DOUGLAS        FAIR      78  35  21 NE8       30.21R
6HR MIN TEMP:  67; 6HR MAX TEMP:  81;


$$
WYZ021-027>030-104>119-220100-
SOUTHERN WYOMING

CITY           SKY/WX    TMP DP  RH WIND       PRES   REMARKS
EVANSTON       LGT RAIN  74  39  28 NE21G36   30.31S
6HR MIN TEMP:  70; 6HR MAX TEMP:  83; 6HR PCP: TRACE;

KEMMERER         N/A     79  27  14 NW18      30.32R
FORT BRIDGER   FAIR      83  30  15 N16G28    30.31S
ROCK SPRINGS   FAIR      83  27  13 W12       30.25F
6HR MIN TEMP:  67; 6HR MAX TEMP:  85;

RAWLINS        FAIR      83  26  12 NW15      30.24F
6HR MIN TEMP:  69; 6HR MAX TEMP:  84;

SARATOGA       FAIR      77  30  18 CALM      30.28S
LARAMIE        FAIR      79  31  17 N12G21    30.29R
6HR MIN TEMP:  67; 6HR MAX TEMP:  81;

CHEYENNE       FAIR      76  38  25 NE15      30.24S
6HR MIN TEMP:  70; 6HR MAX TEMP:  79;

TORRINGTON     FAIR      80  47  31 E13       30.13S
6HR MIN TEMP:  73; 6HR MAX TEMP:  85;

PINE BLUFFS    FAIR      75  43  31 NE13      30.20R

$$




USA.gov is the U.S. government's official web portal to all federal, state and local government web resources and services.